When you browse on this site, cookies collect data to enhance your experience and personalize the content and advertising you see.
Visit our Privacy Policy to learn more. By continuing to use the site, you agree to this use of cookies and data.
  • In Germany
  • List of Countries
  • For 7 days
  • Water Temperature
  • Weather Map
  • Weather Widgets
  • user-avatar
    Login

    Hourly Weather Wien

    Today, 22 August, Thursday

    Time Temperature Precipitation Wind Pressure Humidity
    00:00 +17°C° 0 mm 3 mps 751 mmHg 77%
    01:00 +17°C° 0 mm 3 mps 751 mmHg 79%
    02:00 +16°C° 0 mm 3 mps 750 mmHg 80%
    03:00 +16°C° 0 mm 3 mps 750 mmHg 81%
    04:00 +16°C° 0 mm 3 mps 750 mmHg 83%
    05:00 +16°C° 0.1 mm 3 mps 750 mmHg 81%
    06:00 +17°C° 0.1 mm 3 mps 750 mmHg 79%
    07:00 +17°C° 0.1 mm 3 mps 750 mmHg 77%
    08:00 +18°C° 0 mm 2 mps 750 mmHg 72%
    09:00 +20°C° 0 mm 2 mps 750 mmHg 67%
    10:00 +21°C° 0 mm 2 mps 750 mmHg 61%
    11:00 +24°C° 0 mm 2 mps 750 mmHg 57%
    12:00 +25°C° 0 mm 2 mps 750 mmHg 52%
    13:00 +27°C° 0 mm 1 mps 749 mmHg 47%
    14:00 +27°C° 0 mm 1 mps 749 mmHg 47%
    15:00 +27°C° 0 mm 1 mps 749 mmHg 46%
    16:00 +28°C° 0 mm 1 mps 749 mmHg 46%
    17:00 +26°C° 0 mm 1 mps 749 mmHg 51%
    18:00 +25°C° 0 mm 1 mps 749 mmHg 57%
    19:00 +24°C° 0 mm 1 mps 749 mmHg 63%
    20:00 +23°C° 0 mm 1 mps 749 mmHg 66%
    21:00 +22°C° 0 mm 1 mps 749 mmHg 70%
    22:00 +21°C° 0 mm 1 mps 750 mmHg 73%
    23:00 +20°C° 0 mm 1 mps 750 mmHg 75%

    Tomorrow, 23 August, Friday

    Time Temperature Precipitation Wind Pressure Humidity
    00:00 +20°C° 0 mm 1 mps 750 mmHg 77%
    01:00 +19°C° 0 mm 1 mps 750 mmHg 79%
    02:00 +19°C° 0 mm 1 mps 749 mmHg 80%
    03:00 +18°C° 0 mm 1 mps 749 mmHg 81%
    04:00 +18°C° 0 mm 1 mps 749 mmHg 82%
    05:00 +19°C° 0 mm 1 mps 749 mmHg 79%
    06:00 +19°C° 0 mm 1 mps 749 mmHg 76%
    07:00 +19°C° 0 mm 2 mps 749 mmHg 73%
    08:00 +21°C° 0 mm 2 mps 749 mmHg 67%
    09:00 +24°C° 0 mm 2 mps 749 mmHg 62%
    10:00 +25°C° 0 mm 2 mps 750 mmHg 57%
    11:00 +27°C° 0 mm 2 mps 749 mmHg 54%
    12:00 +28°C° 0 mm 2 mps 749 mmHg 52%
    13:00 +29°C° 0 mm 1 mps 748 mmHg 49%
    14:00 +29°C° 0 mm 1 mps 748 mmHg 49%
    15:00 +29°C° 0 mm 1 mps 748 mmHg 48%
    16:00 +29°C° 0 mm 1 mps 748 mmHg 48%
    17:00 +28°C° 0.1 mm 1 mps 748 mmHg 53%
    18:00 +27°C° 0.1 mm 1 mps 747 mmHg 59%
    19:00 +26°C° 0.1 mm 1 mps 747 mmHg 64%
    20:00 +25°C° 0.3 mm 1 mps 747 mmHg 68%
    21:00 +24°C° 0.3 mm 1 mps 748 mmHg 72%
    22:00 +23°C° 0.3 mm 1 mps 748 mmHg 76%
    23:00 +23°C° 0.1 mm 1 mps 747 mmHg 78%

    Day after tomorrow, 24 August, Saturday

    Time Temperature Precipitation Wind Pressure Humidity
    00:00 +22°C° 0.1 mm 1 mps 747 mmHg 80%
    01:00 +22°C° 0.1 mm 1 mps 747 mmHg 82%
    02:00 +22°C° 0 mm 1 mps 747 mmHg 83%
    03:00 +21°C° 0 mm 1 mps 747 mmHg 84%
    04:00 +21°C° 0 mm 1 mps 746 mmHg 85%
    05:00 +22°C° 0 mm 1 mps 746 mmHg 82%
    06:00 +22°C° 0 mm 1 mps 746 mmHg 80%
    07:00 +23°C° 0 mm 1 mps 747 mmHg 78%
    08:00 +25°C° 0 mm 1 mps 747 mmHg 70%
    09:00 +27°C° 0 mm 1 mps 747 mmHg 63%
    10:00 +28°C° 0 mm 2 mps 747 mmHg 56%
    11:00 +30°C° 0 mm 2 mps 747 mmHg 52%
    12:00 +31°C° 0 mm 2 mps 746 mmHg 47%
    13:00 +33°C° 0 mm 3 mps 746 mmHg 43%
    14:00 +33°C° 0 mm 3 mps 746 mmHg 41%
    15:00 +33°C° 0 mm 3 mps 746 mmHg 40%
    16:00 +34°C° 0 mm 3 mps 745 mmHg 39%
    17:00 +31°C° 0.1 mm 3 mps 745 mmHg 44%
    18:00 +29°C° 0.1 mm 2 mps 745 mmHg 50%
    19:00 +28°C° 0.1 mm 2 mps 745 mmHg 55%
    20:00 +27°C° 0.8 mm 2 mps 745 mmHg 61%
    21:00 +26°C° 0.8 mm 2 mps 745 mmHg 66%
    22:00 +25°C° 0.8 mm 2 mps 746 mmHg 71%
    23:00 +24°C° 0 mm 2 mps 745 mmHg 72%

    25 August, Sunday

    Time Temperature Precipitation Wind Pressure Humidity
    00:00 +24°C° 0 mm 1 mps 745 mmHg 72%
    01:00 +24°C° 0 mm 1 mps 745 mmHg 73%
    02:00 +23°C° 0 mm 1 mps 745 mmHg 74%
    03:00 +23°C° 0 mm 1 mps 745 mmHg 76%
    04:00 +22°C° 0 mm 1 mps 745 mmHg 77%
    05:00 +23°C° 0.1 mm 1 mps 745 mmHg 76%
    06:00 +23°C° 0.1 mm 1 mps 745 mmHg 74%
    07:00 +24°C° 0.1 mm 1 mps 745 mmHg 73%
    08:00 +26°C° 0 mm 1 mps 745 mmHg 65%
    09:00 +28°C° 0 mm 2 mps 746 mmHg 57%
    10:00 +30°C° 0 mm 2 mps 746 mmHg 50%
    11:00 +31°C° 0 mm 2 mps 746 mmHg 46%
    12:00 +33°C° 0 mm 3 mps 745 mmHg 42%
    13:00 +34°C° 0 mm 3 mps 745 mmHg 38%
    14:00 +34°C° 0 mm 3 mps 745 mmHg 37%
    15:00 +34°C° 0 mm 3 mps 745 mmHg 37%
    16:00 +34°C° 0 mm 3 mps 745 mmHg 36%
    17:00 +31°C° 0.5 mm 3 mps 745 mmHg 44%
    18:00 +29°C° 0.5 mm 3 mps 745 mmHg 53%
    19:00 +27°C° 0.5 mm 3 mps 744 mmHg 61%
    20:00 +26°C° 0.4 mm 2 mps 745 mmHg 64%
    21:00 +25°C° 0.4 mm 2 mps 745 mmHg 66%
    22:00 +25°C° 0.4 mm 1 mps 746 mmHg 69%
    23:00 +24°C° 0.6 mm 1 mps 746 mmHg 72%

    26 August, Monday

    Time Temperature Precipitation Wind Pressure Humidity
    00:00 +24°C° 0.6 mm 1 mps 745 mmHg 74%
    01:00 +23°C° 0.6 mm 1 mps 745 mmHg 77%
    02:00 +23°C° 0 mm 1 mps 745 mmHg 78%
    03:00 +23°C° 0 mm 1 mps 745 mmHg 79%
    04:00 +20°C° 0 mm 0 mps 745 mmHg 80%
    05:00 +21°C° 0 mm 0 mps 746 mmHg 78%
    06:00 +23°C° 0 mm 1 mps 746 mmHg 76%
    07:00 +24°C° 0 mm 1 mps 746 mmHg 74%
    08:00 +26°C° 0 mm 1 mps 746 mmHg 68%
    09:00 +28°C° 0 mm 1 mps 746 mmHg 61%
    10:00 +29°C° 0 mm 1 mps 746 mmHg 54%
    11:00 +31°C° 0 mm 1 mps 746 mmHg 50%
    12:00 +32°C° 0 mm 2 mps 746 mmHg 45%
    13:00 +34°C° 0 mm 2 mps 746 mmHg 41%
    14:00 +34°C° 0 mm 2 mps 746 mmHg 40%
    15:00 +34°C° 0 mm 3 mps 746 mmHg 39%
    16:00 +34°C° 0 mm 3 mps 745 mmHg 38%
    17:00 +32°C° 0 mm 2 mps 745 mmHg 42%
    18:00 +30°C° 0 mm 2 mps 745 mmHg 47%
    19:00 +29°C° 0 mm 1 mps 745 mmHg 51%
    20:00 +28°C° 0.3 mm 1 mps 746 mmHg 55%
    21:00 +27°C° 0.3 mm 1 mps 746 mmHg 59%
    22:00 +26°C° 0.3 mm 1 mps 746 mmHg 62%
    23:00 +25°C° 0.4 mm 1 mps 746 mmHg 65%

    27 August, Tuesday

    Time Temperature Precipitation Wind Pressure Humidity
    00:00 +25°C° 0.4 mm 1 mps 746 mmHg 67%
    01:00 +24°C° 0.4 mm 1 mps 746 mmHg 70%
    02:00 +24°C° 0 mm 1 mps 746 mmHg 71%
    03:00 +23°C° 0 mm 1 mps 745 mmHg 73%
    04:00 +23°C° 0 mm 1 mps 745 mmHg 74%
    05:00 +24°C° 0 mm 1 mps 745 mmHg 73%
    06:00 +24°C° 0 mm 1 mps 746 mmHg 71%
    07:00 +25°C° 0 mm 1 mps 746 mmHg 70%
    08:00 +27°C° 0 mm 2 mps 746 mmHg 63%
    09:00 +28°C° 0 mm 2 mps 746 mmHg 56%
    10:00 +30°C° 0 mm 3 mps 746 mmHg 49%
    11:00 +32°C° 0 mm 4 mps 746 mmHg 44%
    12:00 +34°C° 0 mm 4 mps 745 mmHg 39%
    13:00 +35°C° 0 mm 5 mps 745 mmHg 35%
    14:00 +35°C° 0 mm 4 mps 745 mmHg 34%
    15:00 +35°C° 0 mm 4 mps 744 mmHg 34%
    16:00 +35°C° 0 mm 4 mps 744 mmHg 33%
    17:00 +33°C° 0 mm 3 mps 744 mmHg 38%
    18:00 +31°C° 0 mm 3 mps 744 mmHg 42%
    19:00 +29°C° 0 mm 2 mps 744 mmHg 46%
    20:00 +28°C° 0 mm 2 mps 744 mmHg 48%
    21:00 +27°C° 0 mm 2 mps 744 mmHg 50%
    22:00 +27°C° 0 mm 3 mps 744 mmHg 53%
    23:00 +26°C° 0 mm 2 mps 744 mmHg 54%
    Show more